SCP
0 0 0 0 0 0 0 0 0 0 1 0 0 0 0 1 1 2 2 2 2 2 2 2 2 3 3 3 3 3 2 2 2 2 2 2 2 2 2 2 2 2 3 3
0 0 0 0 0 0 0 0 0 1 1 0 0 0 0 1 1 1 2 2 2 2 2 2 2 3 3 3 3 3 3 3 3 3 3 3 3 3 3 3 3 3 3 3
0 0 0 0 0 0 0 0 0 1 1 1 0 0 0 1 1 1 1 2 2 2 2 2 2 3 3 3 3 3 3 4 4 4 4 4 4 4 3 3 3 3 3 3
0 0 0 0 0 0 0 0 0 0 0 0 0 0 1 1 1 1 1 1 2 2 2 2 2 3 3 3 3 3 3 4 4 4 4 4 4 4 4 4 4 4 4 4
0 0 0 0 0 0 0 0 0 0 0 0 0 0 0 1 1 1 1 1 1 2 2 2 3 3 3 3 3 3 4 4 4 4 4 4 4 5 5 5 5 5 5 4
0 0 0 0 0 0 0 0 0 0 0 0 0 0 0 1 1 1 1 1 1 1 2 2 3 3 3 3 3 4 4 4 4 3 3 4 4 5 5 6 6 6 5 4
0 0 0 0 0 0 0 0 0 0 0 0 0 0 0 0 1 1 1 1 1 1 2 2 3 3 3 3 4 4 4 4 3 3 3 4 4 5 5 5 6 6 5 4
0 0 0 0 0 0 0 0 0 0 0 0 0 0 0 1 1 1 1 1 1 1 2 2 3 3 3 3 4 4 3 3 3 3 4 4 4 4 4 4 4 4 4 4
0 0 0 0 0 0 0 0 0 0 0 0 0 0 1 1 1 1 1 1 1 1 2 2 3 3 3 3 4 4 3 3 4 4 5 5 4 4 4 4 4 3 3 3
0 0 0 0 0 0 0 0 0 0 0 0 0 0 1 1 1 1 1 1 2 2 2 2 3 3 3 3 4 5 4 4 4 4 5 4 4 4 4 4 3 3 3 3
0 0 0 0 0 0 0 0 0 0 0 0 0 1 1 2 2 2 2 2 2 2 2 3 3 3 4 4 5 5 5 4 3 4 4 4 4 4 4 3 3 3 4 3
0 0 0 0 0 0 0 0 0 0 0 0 0 1 1 2 2 2 2 2 2 3 3 3 3 4 4 4 5 5 4 4 4 4 4 3 3 3 4 4 4 4 4 3
0 0 0 0 0 0 0 0 0 0 0 0 0 1 1 1 2 2 3 3 3 3 3 3 4 4 4 4 4 4 4 5 6 5 4 3 3 3 4 4 4 4 4 3
0 0 0 0 0 0 0 0 0 0 0 0 0 1 1 1 1 2 3 4 4 4 4 4 4 4 4 4 4 4 5 6 6 6 5 4 4 4 4 4 4 4 4 3
0 0 0 0 0 0 0 0 0 0 0 0 1 1 1 1 1 2 2 3 4 5 6 5 4 4 4 5 5 5 5 6 6 7 7 5 4 3 3 3 4 4 4 3
0 0 0 0 0 0 0 0 1 1 0 1 1 1 1 2 2 2 2 2 3 5 7 7 5 5 6 7 8 7 7 7 6 7 6 4 4 4 4 4 5 5 4 3
0 0 0 0 0 0 1 1 1 1 1 1 1 1 2 2 2 2 2 2 3 4 6 7 7 8 9 10 9 8 8 7 6 5 4 3 3 3 4 5 6 6 4 3
1 1 0 0 0 0 1 1 1 1 1 1 1 1 1 1 2 2 2 2 3 3 5 6 8 10 10 9 8 7 7 7 6 5 4 3 3 3 3 4 5 5 4 4
1 1 0 0 0 0 1 1 1 1 1 2 2 2 2 2 2 2 2 3 3 4 4 6 7 8 8 7 6 6 7 9 8 7 5 4 3 3 3 3 4 4 4 4
1 1 1 0 0 0 1 1 1 1 2 2 2 3 3 3 2 2 3 3 3 4 4 5 6 6 6 5 5 7 9 11 10 8 6 5 4 4 4 4 4 4 4 4
1 1 1 0 0 1 1 1 1 1 2 2 3 4 4 3 3 3 4 4 4 4 4 5 5 6 6 6 7 9 11 12 10 8 7 6 6 5 5 5 4 4 4 4
1 1 1 1 1 1 1 1 1 2 2 3 4 4 4 4 4 5 5 5 4 4 5 5 5 6 6 6 8 10 11 10 9 8 8 8 7 6 6 6 5 4 4 4
2 2 1 1 1 1 2 2 2 2 2 3 4 4 4 4 4 5 5 5 5 5 5 5 6 6 6 6 8 9 9 8 9 10 10 10 9 8 6 5 4 4 4 4
3 2 2 1 1 1 2 3 3 4 3 3 3 3 4 4 4 4 5 4 4 5 6 6 6 7 7 6 6 7 8 8 9 10 10 10 9 8 6 5 4 4 4 4
2 2 2 2 1 1 2 2 4 6 5 3 3 3 4 4 4 4 4 4 4 5 6 6 6 7 7 6 6 7 8 8 8 8 8 8 7 6 5 4 4 3 3 3
2 2 2 1 1 1 1 1 3 6 6 4 3 4 4 4 4 4 4 4 4 4 5 5 5 6 7 6 6 7 8 8 8 7 6 6 5 4 4 4 3 3 2 2
Wind_Speed
10 12 13 14 13 8 8 11 12 8 5 8 11 9 8 10 11 12 13 14 15 14 15 15 14 14 13 13 13 13 12 11 9 7 7 7 7 6 5 5 5 6 5 5
10 14 11 7 8 8 10 12 11 7 5 7 9 10 9 10 12 12 12 13 14 14 14 15 15 15 15 15 14 14 13 12 11 8 7 5 5 5 5 4 5 6 6 6
14 6 9 10 12 13 12 12 10 8 6 8 9 13 12 10 11 11 12 12 13 14 15 16 16 16 16 16 15 13 14 13 12 10 8 6 5 5 5 6 6 6 7 7
11 6 10 14 14 13 12 8 7 8 10 9 10 11 12 11 11 13 13 13 13 14 14 15 16 17 17 16 15 14 14 13 12 12 10 10 8 8 7 5 5 7 7 7
10 10 12 14 13 13 8 6 8 9 11 9 11 12 9 11 12 13 13 13 13 13 14 15 16 17 16 16 15 14 14 14 13 13 11 11 10 8 6 6 6 6 6 7
7 7 10 10 10 11 7 8 7 8 10 13 12 12 9 9 11 10 10 12 12 13 13 14 14 14 15 15 15 14 14 14 14 14 13 13 12 10 8 8 7 7 6 6
10 11 9 9 12 13 13 12 9 11 11 11 9 11 8 4 5 6 7 8 10 11 12 13 14 15 15 16 16 14 15 14 14 14 14 13 12 11 10 9 8 7 6 6
12 13 13 12 13 12 17 17 11 9 11 9 9 11 6 3 3 4 5 6 7 9 11 12 14 14 15 16 16 15 15 14 14 14 13 12 12 10 9 10 8 8 6 6
9 8 10 11 11 11 15 16 13 9 6 8 9 7 6 6 5 4 4 4 5 7 9 11 13 14 15 15 16 16 15 14 14 13 13 12 12 11 9 8 9 7 7 6
5 7 10 10 10 11 11 12 9 10 9 11 9 10 7 8 6 4 3 4 3 5 7 9 11 12 13 14 14 15 14 14 13 13 12 10 11 11 10 9 9 8 7 6
7 7 10 12 13 14 12 14 11 11 10 9 8 6 3 4 4 3 2 2 2 3 5 7 9 11 12 12 13 13 13 13 12 12 11 10 10 10 10 9 9 8 7 7
8 7 8 10 7 7 13 13 13 11 9 9 8 4 6 3 2 1 1 1 1 2 3 5 8 10 11 12 12 12 12 12 12 11 10 10 10 9 9 9 9 8 8 7
7 7 9 11 10 10 12 13 13 11 8 9 10 6 7 3 2 2 2 2 1 1 3 5 6 8 9 10 10 10 10 11 10 10 10 10 9 9 9 8 8 8 8 8
6 7 9 8 7 12 13 13 13 13 11 11 11 7 5 2 1 1 2 2 1 2 3 4 5 7 8 8 9 9 9 9 9 9 10 9 9 8 7 7 7 7 7 7
7 8 7 4 1 6 10 13 14 15 14 12 9 9 6 3 2 1 1 1 1 1 2 3 4 6 7 8 9 9 9 9 9 9 8 8 7 7 6 6 6 6 6 6
5 6 7 7 6 7 9 11 12 13 13 12 10 8 3 3 2 1 1 1 1 1 2 3 4 5 7 8 8 8 8 8 8 8 7 7 7 6 6 6 5 5 5 5
6 6 8 9 8 8 12 11 11 10 10 11 10 5 2 3 3 2 2 2 1 1 1 2 3 4 6 7 7 7 7 7 7 7 6 7 7 6 6 6 6 5 5 5
5 7 7 7 8 13 4 3 7 8 6 5 4 3 2 2 2 1 1 1 2 1 0 1 2 3 4 6 7 7 8 8 7 6 6 6 6 6 6 6 5 5 4 4
6 7 7 8 10 8 6 5 7 8 6 3 3 2 1 1 3 2 4 4 3 2 1 1 2 3 4 6 7 8 8 8 7 7 6 6 6 6 6 6 5 5 4 4
7 8 9 9 11 10 6 5 3 6 7 4 2 1 1 2 5 2 5 4 4 2 1 1 2 3 5 6 7 8 8 8 7 6 6 5 5 5 5 6 6 5 5 4
10 9 12 11 10 5 3 3 5 9 4 3 2 1 1 1 3 4 3 4 4 3 3 3 4 4 4 5 6 7 7 7 6 6 6 6 5 5 5 5 5 5 5 4
9 9 10 10 11 5 4 4 3 3 4 2 2 1 1 2 2 3 3 3 4 4 4 5 5 5 5 5 5 6 5 5 6 7 7 6 6 5 4 5 5 5 5 6
6 4 3 4 1 4 2 2 4 2 2 2 1 1 1 1 2 3 3 4 4 5 5 4 5 6 5 5 5 6 5 5 6 7 7 6 6 5 4 4 5 5 4 3
4 3 4 3 2 2 2 2 2 2 2 2 2 1 1 2 2 3 4 4 4 5 5 5 5 6 5 5 5 6 6 6 7 7 7 7 7 6 6 4 3 3 3 3
3 4 5 6 3 2 3 1 2 2 2 2 2 2 2 2 3 4 4 4 4 5 5 5 5 6 5 5 5 5 5 6 7 7 7 7 7 7 7 7 6 5 6 5
5 5 6 4 3 3 2 1 0 1 2 2 2 3 3 3 4 4 4 4 4 5 5 5 6 6 6 5 6 5 5 6 7 7 6 5 6 6 6 7 8 14 11 13
Wind_Direction
185 207 208 205 216 246 228 219 208 191 172 216 220 217 197 190 201 199 194 193 196 199 191 189 189 190 187 187 187 187 189 184 188 190 195 196 197 199 200 203 201 208 212 204
188 217 214 207 205 221 221 219 208 180 185 227 222 225 211 201 209 208 202 200 200 196 192 189 189 191 192 190 191 190 192 188 194 193 199 202 206 206 205 212 201 212 216 216
208 192 186 194 198 209 216 221 211 197 191 216 227 223 211 205 213 214 213 211 207 200 195 191 192 194 195 193 194 195 194 191 196 193 194 192 194 213 206 206 205 211 216 220
217 169 189 200 204 210 211 214 217 208 213 206 218 230 201 203 211 214 214 212 211 204 199 195 194 195 197 196 194 196 194 194 195 196 202 200 204 209 211 211 206 204 211 219
196 190 194 204 203 210 213 184 210 218 227 231 213 242 209 192 215 216 213 214 213 206 202 198 198 197 198 196 194 194 193 196 197 200 201 207 217 219 214 211 209 215 210 219
186 189 209 211 197 203 178 177 193 221 230 229 219 233 227 197 213 220 212 210 211 207 203 199 197 195 195 195 195 194 192 196 197 200 204 210 218 222 222 217 212 214 212 216
190 192 193 200 188 189 197 194 194 201 214 225 201 228 235 205 211 233 227 216 209 204 203 197 193 193 191 192 192 192 192 196 197 200 205 209 216 221 223 224 221 225 222 216
192 189 189 195 203 190 204 213 221 217 213 201 188 227 219 188 210 233 237 227 211 206 201 197 193 191 191 190 189 190 192 196 197 201 205 209 212 219 223 221 228 223 229 227
201 185 174 195 207 210 202 219 236 250 244 232 197 206 210 196 205 211 206 203 201 202 199 197 193 190 190 188 189 190 190 193 196 200 202 207 210 219 224 219 223 230 229 230
214 191 173 182 197 215 225 211 214 231 226 226 209 209 207 182 195 192 189 189 184 192 192 191 190 190 189 188 186 188 189 191 193 197 201 203 208 213 218 222 223 230 231 231
214 207 172 182 201 192 200 207 216 223 240 238 218 197 154 182 185 186 150 154 182 189 185 185 184 185 184 184 182 184 187 188 191 196 199 205 205 208 212 217 219 219 224 225
211 225 196 190 188 222 208 210 211 217 216 241 251 157 107 130 143 152 109 100 143 181 174 174 174 175 178 180 181 182 186 186 189 192 196 201 204 207 211 214 215 211 215 221
190 218 199 188 190 202 213 213 218 228 226 227 231 184 123 131 125 95 65 61 90 140 163 163 167 171 175 176 177 179 184 185 185 185 193 198 202 205 210 213 212 212 213 218
225 224 239 222 194 186 199 206 213 221 226 224 230 217 172 204 256 61 54 49 61 114 147 156 162 169 172 173 174 176 179 180 180 182 191 193 198 201 206 210 206 208 211 215
226 219 230 250 221 210 205 203 207 220 233 237 224 228 231 246 275 327 355 0 53 115 143 153 167 173 174 173 173 176 177 177 179 181 187 190 192 191 195 197 198 200 203 205
224 227 212 211 207 217 216 212 212 219 230 237 239 233 241 257 254 263 275 274 283 170 170 162 165 176 179 178 176 174 174 174 177 180 182 179 180 179 184 188 192 191 192 195
202 217 220 211 198 217 219 215 213 214 221 231 231 223 217 238 243 260 276 271 284 283 192 170 166 176 179 179 173 170 164 162 166 171 172 172 178 175 176 182 182 181 179 179
219 224 229 220 207 226 193 186 219 214 216 228 225 215 239 258 259 277 350 341 333 341 238 176 173 162 167 165 163 160 153 154 156 160 164 165 171 174 171 170 172 174 171 175
224 225 229 227 220 220 184 186 207 206 192 201 210 195 216 258 195 137 37 13 359 348 317 187 167 156 152 155 154 152 150 148 149 152 157 158 164 165 162 162 167 165 162 160
195 226 234 223 227 224 178 150 208 226 194 153 175 182 239 246 231 107 28 8 6 8 41 124 136 133 138 146 151 150 149 146 145 145 149 151 156 158 155 157 158 151 152 155
187 201 222 225 227 221 112 139 203 221 162 118 138 153 287 317 347 24 16 18 21 38 70 92 101 105 116 135 144 145 143 143 144 140 138 135 135 140 139 142 145 145 145 141
206 202 207 218 224 202 116 186 218 60 70 98 102 66 15 44 53 52 48 48 48 60 75 83 90 89 97 119 132 132 130 128 129 130 131 132 133 136 134 135 136 139 142 141
232 262 237 231 223 63 56 65 61 63 75 66 49 32 52 76 74 65 63 62 61 67 74 82 91 86 83 94 113 117 114 120 125 124 125 125 121 118 120 129 132 136 138 136
195 238 241 225 186 131 110 102 90 72 54 33 23 24 63 99 92 91 80 69 66 64 68 73 84 85 79 81 92 102 111 119 122 119 115 111 110 105 91 83 92 95 93 106
207 205 218 221 202 179 161 120 73 64 59 49 42 43 72 114 112 102 90 75 71 71 71 74 79 85 83 83 88 98 109 118 117 115 111 112 108 102 91 77 56 63 56 46
222 225 230 223 191 224 180 164 287 15 50 42 47 57 57 86 98 96 86 76 75 77 77 79 79 83 85 85 87 94 106 119 120 117 116 112 111 110 110 106 87 61 66 62